{"data":{"norad_id":58095,"epoch":"2026-05-24T23:27:46.624608Z","epoch_age_seconds":77763,"freshness":"FRESH","line1":"1 58095U 23160W   26144.97762297 -.00001008  00000+0 -27102-4 0  9991","line2":"2 58095  43.0057   6.9960 0001312 269.0413  91.0288 15.27566155144617","mean_motion":15.27566155,"eccentricity":0.0001312,"inclination_deg":43.0057,"raan_deg":6.996,"arg_perigee_deg":269.0413,"mean_anomaly_deg":91.0288,"bstar":-2.7102e-5,"rev_number":14461,"period_min":94.267603094414,"perigee_km":482.19036020849,"apogee_km":483.99074631847,"semimajor_km":6861.2275532635,"source":"CELESTRAK","updated_at":"2026-05-25T13:38:18.525384Z"}}